Weather History for KFLD - November, 2013

Change the Weather History Date:

Thursday, November 28, 2013

  Actual Average Record
Temperature  
Mean Temperature 21 °F -  
Max Temperature 26 °F 34 °F 62 °F (1998)
Min Temperature 16 °F 20 °F -4 °F (1955)
Degree Days  
Heating Degree Days 44    
Moisture  
Dew Point 14 °F    
Average Humidity 72    
Maximum Humidity 85    
Minimum Humidity 63    
Precipitation  
Precipitation 0.00 in - - ()
Sea Level Pressure  
Sea Level Pressure 30.30 in    
Wind  
Wind Speed 7 mph (West)    
Max Wind Speed 14 mph    
Max Gust Speed -    
Visibility 10 miles    
Events Snow    
Averages and records for this station are not official NWS values.
T = Trace of Precipitation, MM = Missing Value Source: NWS Daily Summary

Daily Weather History Graph

Daily Weather History Graph

Search for Another Location

Airport or City:

Trip Planner

Search our weather history database for the weather conditions in past years. The results will help you decide how hot, cold, wet, or windy it might be!

Date:

Astronomy

Nov. 28, 2013 Rise Set
Actual Time 7:04 AM CST 4:19 PM CST
Civil Twilight 6:32 AM CST 4:51 PM CST
Nautical Twilight 5:57 AM CST 5:26 PM CST
Astronomical Twilight 5:22 AM CST 6:01 PM CST
Moon 1:58 AM CST (11/28) 1:36 PM CST (11/28)
Length of Visible Light 10h 18m
Length of Day
9h 14m
Waning Crescent, 22% of the Moon is Illuminated
Nov 28
Waning Crescent
Dec 2
New
Dec 9
First Quarter
Dec 17
Full
Dec 25
Last Quarter

Hourly Weather History & Observations

Time (CST) Temp. Windchill Dew Point Humidity Pressure Visibility Wind Dir Wind Speed Gust Speed Precip Events Conditions
12:53 AM 21.0 °F 14.6 °F 17.1 °F 85% 30.23 in 10.0 mi SSE 4.6 mph - N/A   Overcast
1:53 AM 21.0 °F 13.4 °F 16.0 °F 81% 30.22 in 10.0 mi South 5.8 mph - N/A   Overcast
2:53 AM 21.0 °F 12.4 °F 15.1 °F 78% 30.20 in 10.0 mi SSE 6.9 mph - N/A   Overcast
3:53 AM 21.0 °F 14.6 °F 14.0 °F 74% 30.19 in 10.0 mi SSE 4.6 mph - N/A   Overcast
4:53 AM 21.0 °F 13.4 °F 14.0 °F 74% 30.19 in 10.0 mi SSE 5.8 mph - N/A   Overcast
5:53 AM 21.0 °F 12.4 °F 14.0 °F 74% 30.20 in 10.0 mi South 6.9 mph - N/A   Overcast
6:53 AM 21.0 °F 11.4 °F 14.0 °F 74% 30.21 in 10.0 mi South 8.1 mph - N/A   Overcast
7:53 AM 21.9 °F 14.5 °F 14.0 °F 72% 30.21 in 10.0 mi SSE 5.8 mph - N/A   Overcast
8:53 AM 23.0 °F 14.7 °F 14.0 °F 68% 30.22 in 10.0 mi South 6.9 mph - 0.00 in   Overcast
9:53 AM 23.0 °F 13.9 °F 14.0 °F 68% 30.22 in 10.0 mi SSW 8.1 mph - N/A   Overcast
10:53 AM 24.1 °F 14.4 °F 15.1 °F 69% 30.23 in 10.0 mi WSW 9.2 mph - 0.00 in   Overcast
11:53 AM 25.0 °F 15.5 °F 16.0 °F 69% 30.22 in 9.0 mi West 9.2 mph - 0.00 in Snow Light Snow
12:35 PM 26.1 °F 16.8 °F 16.0 °F 66% 30.19 in 10.0 mi NW 9.2 mph - 0.00 in   Overcast
12:53 PM 26.1 °F 15.6 °F 16.0 °F 66% 30.23 in 10.0 mi NW 11.5 mph - 0.00 in   Overcast
1:53 PM 25.0 °F 13.1 °F 15.1 °F 66% 30.26 in 10.0 mi NNW 13.8 mph - N/A   Mostly Cloudy
2:53 PM 25.0 °F 14.8 °F 14.0 °F 63% 30.30 in 10.0 mi NNW 10.4 mph - N/A   Overcast
3:16 PM 25.0 °F 14.8 °F 15.1 °F 66% 30.27 in 10.0 mi NNW 10.4 mph - N/A   Overcast
3:53 PM 24.1 °F 13.7 °F 14.0 °F 65% 30.33 in 10.0 mi NNW 10.4 mph - N/A   Overcast
4:53 PM 21.9 °F 15.7 °F 15.1 °F 75% 30.37 in 10.0 mi NW 4.6 mph - N/A   Overcast
5:53 PM 19.9 °F 11.1 °F 12.9 °F 74% 30.40 in 10.0 mi WNW 6.9 mph - N/A   Scattered Clouds
6:53 PM 18.0 °F 9.8 °F 10.9 °F 74% 30.43 in 10.0 mi WNW 5.8 mph - N/A   Clear
7:53 PM 19.0 °F 9.0 °F 12.0 °F 74% 30.45 in 10.0 mi WNW 8.1 mph - N/A   Clear
8:53 PM 18.0 °F 7.7 °F 10.9 °F 74% 30.46 in 10.0 mi NW 8.1 mph - N/A   Clear
9:53 PM 17.1 °F 8.7 °F 10.0 °F 74% 30.48 in 10.0 mi West 5.8 mph - N/A   Clear
10:53 PM 16.0 °F 7.4 °F 10.0 °F 77% 30.51 in 10.0 mi West 5.8 mph - N/A   Clear
11:53 PM 16.0 °F 5.3 °F 10.0 °F 77% 30.52 in 10.0 mi West 8.1 mph - N/A   Clear